RH
95 87 85 89 86 88 86 86 86 85 82 79 80 82 81 77 77 82 80 86 85 83 82 81 79 78 80 81 80 70 47 47
94 96 91 93 88 86 88 84 81 80 82 82 84 83 80 78 83 86 86 86 84 81 81 81 80 81 81 81 81 74 48 47
90 92 92 94 93 86 84 79 79 80 84 86 81 64 60 60 73 85 84 83 81 81 81 82 81 82 82 82 74 50 49 47
96 96 95 95 92 87 84 79 77 77 75 75 65 68 58 52 69 81 84 83 82 82 82 82 67 52 59 70 50 53 50 49
99 97 95 93 92 94 94 91 92 87 81 68 67 60 61 55 58 57 65 73 61 62 65 51 56 52 51 54 57 56 51 49
98 96 97 94 96 97 98 95 94 89 82 73 67 62 62 65 55 52 56 56 65 62 57 61 60 56 57 61 59 54 52 51
94 94 95 99 94 98 98 96 92 92 83 66 64 58 62 52 53 45 47 52 54 55 57 56 58 58 57 58 60 61 61 53
90 89 90 96 94 96 98 96 94 96 88 76 74 65 66 52 51 46 49 44 47 49 52 54 52 53 59 58 60 59 61 62
85 88 87 93 94 93 96 94 94 92 90 81 72 67 66 59 50 48 49 48 48 46 52 52 52 51 54 56 55 59 57 63
92 88 94 92 96 94 94 96 95 92 91 74 69 61 63 62 53 49 50 51 47 44 44 48 48 48 50 48 46 47 50 53
97 96 94 93 97 97 96 92 94 89 89 72 71 61 59 56 49 51 58 56 55 49 49 45 48 46 44 45 47 45 49 41
96 97 96 92 94 95 95 88 79 86 85 76 68 57 60 60 54 59 54 56 56 52 52 49 45 42 31 43 51 48 47 48
94 96 97 95 97 94 90 91 79 79 71 68 68 59 61 66 58 63 58 56 59 62 56 55 52 50 44 43 43 48 52 47
91 92 94 93 94 92 85 80 75 70 75 80 68 67 64 68 68 67 66 65 67 70 64 57 51 51 45 45 47 44 46 46
85 89 90 88 89 96 91 80 73 66 70 79 71 72 60 63 72 74 82 76 64 70 67 63 56 56 52 46 53 52 45 44
77 80 87 84 88 92 84 72 71 63 61 71 72 71 72 68 69 75 77 75 76 73 67 64 61 59 54 47 56 50 52 58
77 75 76 80 81 83 80 73 64 65 63 71 69 66 64 66 70 74 75 76 77 78 80 77 72 67 65 60 59 62 67 83
77 74 73 71 76 74 76 72 63 61 67 66 60 60 68 70 66 73 74 79 81 81 81 80 78 73 69 65 61 79 81 79
81 76 73 72 71 72 72 70 68 67 64 64 64 70 72 72 71 75 75 75 77 80 83 83 82 81 76 74 71 73 83 76
84 80 75 72 73 72 69 68 65 64 64 60 67 68 67 69 74 72 71 73 75 79 82 83 83 86 84 83 90 92 91 88
Wind_Speed
6 12 13 10 12 13 18 20 21 21 23 25 20 20 20 19 17 15 19 21 21 21 20 19 20 20 19 16 15 16 15 11
5 9 9 7 5 9 11 20 21 21 22 23 19 20 20 19 17 18 22 21 21 21 19 19 19 19 18 16 15 15 15 13
10 12 13 11 8 7 8 21 23 21 20 24 18 14 16 19 15 19 21 20 20 20 19 17 17 17 16 15 10 8 11 9
9 11 13 12 9 10 6 11 13 17 14 17 12 13 12 15 15 16 17 19 19 18 19 18 15 11 10 12 7 10 9 8
3 10 10 11 10 5 2 3 7 9 14 14 15 11 11 10 9 9 10 15 11 13 13 9 11 9 9 8 10 9 7 7
6 7 7 9 6 4 5 6 7 9 10 13 12 8 10 9 7 10 9 9 13 11 8 10 10 10 11 11 10 7 6 5
8 8 7 2 14 7 6 7 7 5 9 11 10 11 10 10 9 8 8 9 9 10 10 10 10 11 9 10 9 8 8 5
9 10 9 6 13 9 5 6 3 4 5 7 10 9 9 10 10 9 8 9 9 9 10 10 9 9 10 9 9 8 7 6
11 11 11 8 12 11 7 7 4 3 4 6 9 11 11 11 9 9 8 8 9 7 8 8 8 8 9 8 7 7 7 7
10 9 10 9 7 8 7 7 5 3 1 5 8 12 12 10 9 8 8 8 7 7 7 8 7 7 6 6 6 6 7 6
9 12 14 12 10 6 6 10 8 7 2 6 9 10 11 10 9 8 9 7 7 7 6 8 7 6 6 5 4 5 5 5
9 7 10 13 10 8 5 7 10 8 6 7 10 9 12 9 8 8 8 7 7 7 8 6 6 6 5 4 4 3 4 7
10 11 9 10 9 10 9 9 10 10 10 13 13 11 12 11 7 8 8 8 10 9 6 8 5 6 5 3 5 6 7 6
10 10 13 10 6 6 7 8 7 9 7 9 12 12 12 10 9 9 9 8 8 9 9 5 4 8 4 1 3 5 8 9
13 13 13 12 11 6 4 5 5 7 8 6 8 10 13 12 12 9 9 8 9 11 11 11 8 7 7 4 4 6 2 5
13 15 14 14 13 8 10 12 11 8 9 5 7 8 11 10 12 11 12 10 10 10 9 9 8 9 7 9 6 1 5 3
14 16 17 16 15 14 9 12 9 6 5 7 5 8 11 11 10 10 9 6 10 11 10 11 9 7 8 4 9 5 3 3
14 16 17 18 18 17 15 13 13 10 9 8 8 8 7 10 11 10 9 10 10 10 10 11 11 10 8 9 7 4 5 5
17 20 19 19 20 19 18 17 15 15 13 10 11 8 7 9 11 10 9 10 10 9 10 11 12 11 13 10 9 8 3 4
20 22 21 21 20 20 19 19 12 12 14 12 9 9 9 10 11 11 12 11 10 10 9 9 10 10 13 12 8 7 8 8
Wind_Direction
172 156 141 143 140 139 145 148 147 146 136 132 135 137 130 125 122 133 138 130 131 129 127 127 127 124 122 119 115 114 115 116
168 164 142 161 163 161 158 155 154 144 137 124 128 125 121 122 127 132 132 135 133 131 130 133 130 128 125 124 117 126 122 120
177 175 154 162 164 180 191 167 151 154 133 120 127 131 136 133 131 136 136 136 134 134 135 133 131 128 122 116 131 119 122 118
174 160 164 167 167 181 184 164 155 161 136 133 137 135 138 137 134 133 131 136 136 138 135 133 140 132 124 130 126 130 125 126
96 161 164 159 166 145 109 130 126 157 142 138 135 134 136 137 132 133 135 138 142 140 135 147 140 138 139 137 140 142 135 132
126 140 147 174 149 122 97 136 141 183 145 140 136 131 147 138 142 143 144 149 149 153 156 139 138 138 142 142 145 144 144 138
133 134 130 119 146 136 91 117 155 138 137 144 140 141 144 146 144 147 144 145 153 152 154 145 143 147 152 148 150 154 149 150
142 136 129 107 140 125 106 119 130 105 129 141 137 138 143 152 154 151 149 148 154 156 158 152 154 154 160 159 155 164 170 168
150 133 136 124 124 136 131 142 145 119 108 131 153 148 152 153 161 160 150 152 149 151 151 148 151 161 161 161 157 163 168 181
149 143 144 138 124 141 136 136 148 144 119 161 174 145 159 159 167 162 149 148 157 151 155 145 150 160 161 169 168 170 190 183
151 151 158 157 131 131 130 145 157 181 184 182 180 163 170 170 171 162 155 156 173 151 165 152 156 170 176 172 176 195 181 196
143 145 154 153 148 151 146 151 162 190 203 185 180 178 181 177 174 165 162 163 178 165 168 153 162 167 173 171 199 213 210 214
158 159 149 150 149 156 167 169 167 185 203 193 182 184 188 191 174 173 179 182 187 178 167 173 161 165 157 182 217 220 230 229
164 161 158 159 147 154 174 163 176 186 182 169 182 187 186 191 178 184 186 190 196 187 190 168 178 180 183 173 221 209 227 223
179 168 170 172 161 132 128 124 129 166 178 162 176 189 195 189 188 187 190 198 202 204 201 190 189 187 209 205 183 232 200 188
185 182 173 177 165 164 180 181 176 184 188 166 156 191 207 195 191 182 199 194 208 211 207 210 207 202 200 230 245 231 221 230
188 187 187 180 178 181 191 195 196 163 177 168 162 208 209 205 211 195 205 193 225 220 199 208 215 218 207 184 222 217 228 196
192 191 191 188 186 187 196 195 194 186 184 193 195 207 210 214 216 216 210 206 214 219 217 209 217 218 221 220 210 177 197 193
194 198 198 193 191 192 194 199 197 203 199 203 203 209 215 225 220 222 220 225 217 220 216 218 219 217 222 226 231 232 197 213
194 197 200 196 197 199 197 201 204 208 212 217 219 223 221 210 213 221 225 222 223 222 225 227 220 225 228 224 221 226 224 214